FW8707 Weather Reports


Display with metric or nautical units.
time (UTC)temp
F
wind
direction
speed
MPH
gust
MPH
rain 1hr
in
rain 24hr
in
rain mn
in
humidity
%
barometer
mb
20260504044534 60 270 0.0 2.0 0.00 0.00 0.00 30 1011.6
20260504044014 60 270 0.0 2.0 0.00 0.00 0.00 29 1011.7
20260504043513 60 270 0.0 2.0 0.00 0.00 0.00 28 1011.7
20260504043022 61 270 0.0 2.0 0.00 0.00 0.00 28 1011.8
20260504042510 61 270 0.0 3.0 0.00 0.00 0.00 28 1011.7
20260504042009 61 270 0.0 4.0 0.00 0.00 0.00 28 1011.7
20260504041526 61 270 0.0 9.0 0.00 0.00 0.00 28 1011.7
20260504041011 61 270 2.0 9.0 0.00 0.00 0.00 28 1011.7
20260504040510 61 270 2.0 8.0 0.00 0.00 0.00 29 1011.7
20260504040027 61 270 1.0 8.0 0.00 0.00 0.00 28 1011.6
20260504035510 60 270 0.0 5.0 0.00 0.00 0.00 28 1011.6
20260504035010 60 270 0.0 3.0 0.00 0.00 0.00 28 1011.5
20260504034529 61 270 0.0 2.0 0.00 0.00 0.00 29 1011.5
20260504034007 61 279 0.0 4.0 0.00 0.00 0.00 28 1011.3
20260504033507 61 279 0.0 4.0 0.00 0.00 0.00 28 1011.3
20260504033021 61 270 1.0 4.0 0.00 0.00 0.00 29 1011.3
20260504032506 62 294 1.0 7.0 0.00 0.00 0.00 29 1011.1
20260504032009 62 270 2.0 7.0 0.00 0.00 0.00 28 1011.0
20260504031524 62 293 2.0 5.0 0.00 0.00 0.00 28 1011.0
20260504031010 62 270 3.0 5.0 0.00 0.00 0.00 28 1010.9
20260504030503 62 270 0.0 4.0 0.00 0.00 0.00 28 1010.9
20260504030010 62 270 0.0 3.0 0.00 0.00 0.00 28 1010.9
20260504025504 63 270 0.0 2.0 0.00 0.00 0.00 28 1010.9
20260504025007 63 270 0.0 0.0 0.00 0.00 0.00 29 1010.8
20260504024514 64 171 0.0 0.0 0.00 0.00 0.00 29 1010.8
20260504024006 64 270 0.0 0.0 0.00 0.00 0.00 30 1010.8
20260504023506 64 270 0.0 0.0 0.00 0.00 0.00 27 1010.8
20260504023019 65 270 0.0 0.0 0.00 0.00 0.00 28 1010.7
20260504022506 66 270 0.0 0.0 0.00 0.00 0.00 29 1010.7
20260504022008 66 270 0.0 1.0 0.00 0.00 0.00 28 1010.7
20260504021525 67 270 0.0 1.0 0.00 0.00 0.00 26 1010.6
20260504021007 67 287 0.0 1.0 0.00 0.00 0.00 26 1010.6
20260504020508 68 207 0.0 3.0 0.00 0.00 0.00 25 1010.5
20260504020028 68 302 0.0 3.0 0.00 0.00 0.00 25 1010.5
20260504015510 68 290 0.0 3.0 0.00 0.00 0.00 25 1010.5
20260504015006 68 279 0.0 4.0 0.00 0.00 0.00 26 1010.4
20260504014508 69 204 0.0 4.0 0.00 0.00 0.00 25 1010.3
20260504014008 69 290 1.0 4.0 0.00 0.00 0.00 25 1010.3
20260504013507 69 138 0.0 5.0 0.00 0.00 0.00 25 1010.4
20260504013026 69 289 2.0 5.0 0.00 0.00 0.00 25 1010.3
20260504012507 69 73 0.0 3.0 0.00 0.00 0.00 25 1010.3
20260504012011 69 119 1.0 3.0 0.00 0.00 0.00 25 1010.4
20260504011518 70 87 0.0 3.0 0.00 0.00 0.00 25 1010.4
20260504011012 70 23 0.0 4.0 0.00 0.00 0.00 25 1010.4
20260504010507 70 287 0.0 7.0 0.00 0.00 0.00 25 1010.5
20260504010023 70 294 2.0 7.0 0.00 0.00 0.00 23 1010.6
20260504005510 70 288 0.0 4.0 0.00 0.00 0.00 25 1010.6
20260504005011 70 285 0.0 2.0 0.00 0.00 0.00 25 1010.6
20260504004526 70 270 0.0 2.0 0.00 0.00 0.00 25 1010.7
20260504004003 70 279 0.0 4.0 0.00 0.00 0.00 26 1010.7
20260504003507 70 279 0.0 5.0 0.00 0.00 0.00 25 1010.6
20260504003026 70 279 0.0 7.0 0.00 0.00 0.00 24 1010.6
20260504002508 70 285 0.0 7.0 0.00 0.00 0.00 23 1010.7
20260504002007 70 296 1.0 4.0 0.00 0.00 0.00 22 1010.7
20260504001520 71 239 0.0 2.0 0.00 0.00 0.00 22 1010.8
20260504001007 71 224 0.0 6.0 0.00 0.00 0.00 20 1010.8
20260504000507 71 323 0.0 6.0 0.00 0.00 0.00 19 1010.8
20260504000023 71 325 0.0 8.0 0.00 0.00 0.00 19 1010.7
20260503235507 71 197 1.0 8.0 0.00 0.00 0.00 20 1010.7
20260503235008 71 294 2.0 7.0 0.00 0.00 0.00 20 1010.7
20260503234524 71 293 0.0 4.0 0.00 0.00 0.00 21 1010.8
20260503234010 70 90 0.0 6.0 0.00 0.00 0.00 21 1010.9
20260503233508 70 128 1.0 10.0 0.00 0.00 0.00 22 1010.9
20260503233035 70 150 3.0 10.0 0.00 0.00 0.00 20 1011.0
20260503232506 71 129 0.0 3.0 0.00 0.00 0.00 23 1011.0
20260503232007 71 323 0.0 3.0 0.00 0.00 0.00 23 1011.0
20260503231516 71 148 0.0 2.0 0.00 0.00 0.00 22 1011.0
20260503231008 71 87 0.0 2.0 0.00 0.00 0.00 22 1010.9
20260503230509 71 127 0.0 4.0 0.00 0.00 0.00 22 1011.0
20260503230024 71 312 0.0 4.0 0.00 0.00 0.00 22 1011.0
20260503225507 71 304 0.0 9.0 0.00 0.00 0.00 22 1011.1
20260503225014 71 18 3.0 9.0 0.00 0.00 0.00 22 1011.2
20260503224528 71 109 1.0 8.0 0.00 0.00 0.00 23 1011.2
20260503224010 71 109 1.0 8.0 0.00 0.00 0.00 22 1011.2
20260503223510 72 146 3.0 8.0 0.00 0.00 0.00 22 1011.2
20260503223027 72 137 1.0 7.0 0.00 0.00 0.00 20 1011.2
20260503222510 73 154 1.0 6.0 0.00 0.00 0.00 20 1011.3
20260503222010 74 131 0.0 6.0 0.00 0.00 0.00 20 1011.3
20260503221527 74 144 1.0 4.0 0.00 0.00 0.00 17 1011.3
20260503221008 74 315 0.0 8.0 0.00 0.00 0.00 14 1011.4
20260503220508 74 262 3.0 10.0 0.00 0.00 0.00 14 1011.3
20260503220022 74 328 4.0 10.0 0.00 0.00 0.00 14 1011.4
20260503215508 75 281 4.0 11.0 0.00 0.00 0.00 14 1011.3
20260503215010 75 345 2.0 11.0 0.00 0.00 0.00 14 1011.3
20260503214520 75 305 2.0 11.0 0.00 0.00 0.00 14 1011.2
20260503214008 75 279 2.0 11.0 0.00 0.00 0.00 13 1011.3
20260503213508 75 262 1.0 9.0 0.00 0.00 0.00 12 1011.4
20260503213027 75 262 1.0 9.0 0.00 0.00 0.00 14 1011.4
20260503212515 75 13 3.0 9.0 0.00 0.00 0.00 13 1011.6
20260503212011 75 275 3.0 10.0 0.00 0.00 0.00 13 1011.6
20260503211527 76 344 3.0 10.0 0.00 0.00 0.00 12 1011.7
20260503211007 76 162 1.0 10.0 0.00 0.00 0.00 15 1011.7
20260503210510 75 10 1.0 12.0 0.00 0.00 0.00 13 1011.8
20260503210016 75 328 2.0 12.0 0.00 0.00 0.00 14 1011.9
20260503205507 75 353 6.0 12.0 0.00 0.00 0.00 13 1012.0
20260503205008 75 239 4.0 11.0 0.00 0.00 0.00 14 1012.1
20260503204519 75 261 4.0 11.0 0.00 0.00 0.00 13 1012.3
20260503204008 75 46 4.0 11.0 0.00 0.00 0.00 13 1012.3
20260503203510 75 334 4.0 15.0 0.00 0.00 0.00 14 1012.4
20260503203031 75 23 3.0 15.0 0.00 0.00 0.00 13 1012.5
20260503202509 75 17 7.0 15.0 0.00 0.00 0.00 13 1012.8
20260503202013 75 300 6.0 14.0 0.00 0.00 0.00 14 1012.7
20260503201528 75 310 6.0 14.0 0.00 0.00 0.00 14 1012.8
20260503201013 75 270 4.0 15.0 0.00 0.00 0.00 15 1012.9
20260503200511 75 261 6.0 16.0 0.00 0.00 0.00 14 1012.9
20260503200027 75 301 6.0 16.0 0.00 0.00 0.00 13 1013.0
20260503195510 75 287 3.0 11.0 0.00 0.00 0.00 13 1013.0
20260503195010 75 331 2.0 17.0 0.00 0.00 0.00 14 1013.1
20260503194517 75 288 7.0 17.0 0.00 0.00 0.00 13 1013.1
20260503194007 75 316 8.0 17.0 0.00 0.00 0.00 13 1013.1
20260503193512 75 17 4.0 15.0 0.00 0.00 0.00 15 1013.1
20260503193025 75 335 8.0 15.0 0.00 0.00 0.00 14 1013.3
20260503192509 75 290 6.0 15.0 0.00 0.00 0.00 13 1013.3
20260503192008 75 259 6.0 15.0 0.00 0.00 0.00 14 1013.3
20260503191524 75 293 8.0 16.0 0.00 0.00 0.00 13 1013.4
20260503191010 75 250 6.0 16.0 0.00 0.00 0.00 14 1013.4
20260503190513 75 243 7.0 16.0 0.00 0.00 0.00 13 1013.5
20260503190026 75 317 4.0 16.0 0.00 0.00 0.00 13 1013.4
20260503185510 75 252 4.0 17.0 0.00 0.00 0.00 15 1013.5
20260503185013 75 28 6.0 17.0 0.00 0.00 0.00 14 1013.5
20260503184532 75 298 4.0 12.0 0.00 0.00 0.00 14 1013.4
20260503184009 75 292 7.0 12.0 0.00 0.00 0.00 15 1013.6
20260503183506 74 347 5.0 12.0 0.00 0.00 0.00 15 1013.8
20260503183024 74 249 4.0 11.0 0.00 0.00 0.00 14 1013.9
20260503182509 74 285 4.0 11.0 0.00 0.00 0.00 15 1014.0
20260503182014 74 285 4.0 14.0 0.00 0.00 0.00 15 1014.0
20260503181524 75 279 7.0 14.0 0.00 0.00 0.00 14 1014.1
20260503181010 75 169 7.0 14.0 0.00 0.00 0.00 13 1014.1
20260503180508 75 288 6.0 14.0 0.00 0.00 0.00 14 1014.1
20260503180031 76 281 4.0 12.0 0.00 0.00 0.00 14 1014.1
20260503175507 76 261 1.0 11.0 0.00 0.00 0.00 14 1014.3
20260503175010 76 298 4.0 15.0 0.00 0.00 0.00 16 1014.3
20260503174531 76 305 5.0 15.0 0.00 0.00 0.00 14 1014.5
20260503174012 77 262 6.0 14.0 0.00 0.00 0.00 13 1014.8
20260503173510 77 290 5.0 15.0 0.00 0.00 0.00 15 1014.8
20260503173034 77 262 5.0 15.0 0.00 0.00 0.00 13 1014.8
20260503172514 76 297 3.0 13.0 0.00 0.00 0.00 13 1014.8
20260503172008 75 259 4.0 13.0 0.00 0.00 0.00 15 1014.9
20260503171520 75 241 2.0 12.0 0.00 0.00 0.00 15 1015.0
20260503171009 75 285 1.0 12.0 0.00 0.00 0.00 14 1015.0
20260503170512 75 275 4.0 13.0 0.00 0.00 0.00 14 1015.2
20260503151011 68 75 4.0 8.0 0.00 0.00 0.00 26 1015.6
20260503150508 68 59 3.0 8.0 0.00 0.00 0.00 29 1015.8
20260503131006 55 275 0.0 0.0 0.00 0.00 0.00 37 1016.1
20260503130507 54 270 0.0 1.0 0.00 0.00 0.00 35 1016.1
20260503110510 51 279 2.0 8.0 0.00 0.00 0.00 36 1015.5
20260503090510 52 287 3.0 7.0 0.00 0.00 0.00 34 1016.0
20260503081518 53 275 0.0 2.0 0.00 0.00 0.00 32 1016.1
20260503081008 53 275 0.0 3.0 0.00 0.00 0.00 32 1016.2
20260503080513 54 275 0.0 3.0 0.00 0.00 0.00 31 1016.2
20260503072509 53 270 3.0 7.0 0.00 0.00 0.00 30 1016.7
20260503072012 53 288 3.0 7.0 0.00 0.00 0.00 30 1016.7
20260503071515 53 270 3.0 7.0 0.00 0.00 0.00 30 1016.7
20260503071008 53 270 2.0 5.0 0.00 0.00 0.00 31 1016.7
20260503070508 53 279 2.0 8.0 0.00 0.00 0.00 31 1016.8
20260503055012 52 279 1.0 4.0 0.00 0.00 0.00 31 1017.1
20260503054527 53 279 1.0 7.0 0.00 0.00 0.00 31 1017.2
20260503054010 53 279 3.0 7.0 0.00 0.00 0.00 31 1017.2
20260503053509 53 275 3.0 8.0 0.00 0.00 0.00 30 1017.2
20260503053033 53 287 3.0 8.0 0.00 0.00 0.00 30 1017.2
20260503052507 53 279 3.0 7.0 0.00 0.00 0.00 30 1017.2
20260503052012 53 279 2.0 6.0 0.00 0.00 0.00 29 1017.2
20260503051511 54 279 1.0 5.0 0.00 0.00 0.00 29 1017.1
20260503051004 54 279 0.0 4.0 0.00 0.00 0.00 28 1017.2
20260503050505 54 275 0.0 4.0 0.00 0.00 0.00 28 1017.2
20260503050013 54 279 2.0 4.0 0.00 0.00 0.00 27 1017.2
20260503045506 54 279 2.0 4.0 0.00 0.00 0.00 28 1017.3
20260503045011 54 279 1.0 4.0 0.00 0.00 0.00 27 1017.4